Temperature
17 17 17 17 17 17 17 17 17 17 17 17 17 17 18 18 19 19 19 19 19 19 18 18 18 18 19 19 19 19 18 18 18 18 18 18 18 18 18 17 17 17 17
17 17 17 17 17 17 17 17 16 16 16 16 16 17 17 17 18 18 18 18 18 18 18 18 18 18 18 18 19 19 18 18 18 18 18 18 18 18 18 18 17 17 17
17 17 17 16 16 17 16 16 16 16 16 16 16 16 16 17 17 17 18 18 18 18 18 18 18 18 18 18 18 18 18 18 18 18 18 18 18 18 18 18 18 17 17
16 16 16 16 16 16 16 16 16 16 16 15 15 16 16 16 16 17 17 17 17 17 17 17 17 18 18 18 18 18 18 18 18 18 18 18 18 18 18 18 18 18 17
15 15 16 15 15 15 15 15 15 15 15 15 15 15 16 16 16 16 16 17 17 17 17 17 17 17 18 18 18 18 18 18 18 18 18 17 17 17 17 17 17 17 17
15 15 15 15 15 15 15 15 15 15 15 15 15 15 15 15 16 16 16 16 16 17 17 17 17 17 18 18 18 18 18 18 18 18 18 17 17 17 17 17 17 17 17
14 14 14 14 14 14 14 14 14 14 14 14 14 14 15 15 16 16 16 16 16 17 17 17 17 17 17 17 18 18 18 18 18 18 18 17 17 17 17 17 17 17 17
13 13 14 14 14 14 14 14 14 14 14 14 14 14 14 15 15 16 16 16 16 16 16 17 17 17 17 17 18 18 18 18 18 17 17 17 17 17 17 17 17 17 16
13 13 13 13 14 14 14 14 14 14 14 14 14 14 14 14 15 16 16 16 16 16 16 17 17 17 17 17 17 18 18 18 17 17 17 17 17 17 17 17 17 17 16
13 13 13 13 13 13 13 13 13 13 13 13 13 13 14 14 14 15 16 16 16 16 16 16 17 17 17 17 17 17 17 17 17 17 17 17 17 17 17 17 17 17 17
12 12 12 12 12 13 13 13 13 13 13 13 13 13 14 14 14 14 15 16 16 16 16 16 16 17 17 17 17 17 17 17 17 17 17 17 17 17 17 17 17 17 17
12 12 12 12 12 12 12 12 12 13 13 13 13 13 13 13 14 14 14 15 16 16 16 16 16 17 17 17 17 17 17 17 17 17 17 16 16 16 16 16 17 16 16
10 11 11 11 11 11 11 12 12 12 12 13 13 13 13 13 14 14 14 15 15 16 16 16 16 17 17 17 17 17 17 16 16 16 16 16 16 16 16 16 16 16 16
10 10 10 10 10 11 11 11 11 11 12 12 12 13 13 13 13 14 14 14 15 15 16 16 16 17 17 17 17 17 17 16 16 16 16 16 16 16 16 16 16 16 16
9 9 9 10 10 10 10 10 11 11 11 11 12 12 13 13 13 13 13 14 14 15 15 16 16 16 16 17 17 16 16 16 16 16 16 16 16 16 16 16 16 16 16
9 9 9 9 9 9 10 10 10 10 10 11 11 11 12 12 13 13 13 13 14 14 15 16 16 16 16 16 16 16 16 16 16 16 16 16 16 16 16 16 16 16 16
9 8 8 9 9 9 9 9 9 9 10 10 10 11 11 12 12 12 13 13 13 14 14 15 16 16 16 16 16 16 16 16 16 16 16 16 16 16 16 16 16 16 16
8 8 8 8 8 8 9 9 9 9 9 9 10 10 10 11 11 12 12 12 13 13 14 14 15 15 15 16 16 16 16 16 16 16 16 16 16 16 16 16 16 16 16
8 8 8 8 8 8 8 8 8 9 9 9 9 9 10 10 10 11 11 12 12 13 13 14 14 15 15 15 15 15 15 15 15 15 16 16 16 16 16 16 16 16 16
8 8 8 8 8 8 8 8 8 8 8 9 9 9 9 9 10 10 11 11 11 12 12 13 14 14 14 15 15 15 14 14 15 15 15 15 15 15 16 16 16 16 16
8 7 7 7 7 7 8 8 7 7 7 8 8 8 8 9 9 10 10 10 11 11 12 12 13 13 14 14 14 14 14 14 14 14 14 14 15 15 15 15 15 15 15
7 7 7 7 7 7 7 7 7 7 7 7 7 8 8 8 9 9 9 10 10 11 11 11 12 12 13 14 14 14 14 13 12 12 13 13 13 13 14 14 14 15 15
7 7 7 7 7 8 7 7 7 7 6 7 7 7 7 8 8 8 9 9 10 10 10 11 11 12 12 13 13 14 14 14 14 13 12 12 12 12 12 13 13 14 14
7 7 8 8 7 8 7 7 7 6 6 6 6 7 7 7 8 8 8 9 9 10 10 10 11 11 12 12 13 14 14 13 13 12 12 12 11 11 11 12 12 12 13
7 8 8 8 8 8 7 7 7 6 6 6 6 6 6 7 7 7 8 8 9 9 10 10 10 11 11 12 12 12 12 12 12 11 11 11 11 11 11 11 11 11 11
8 8 8 8 8 7 7 7 7 6 6 6 6 6 6 6 7 7 7 8 8 9 9 10 10 10 10 11 11 12 12 12 12 11 11 11 11 11 10 10 10 11 11
Wind_Speed
3 3 3 4 5 7 6 6 7 9 10 11 13 13 11 14 15 16 15 18 19 26 32 32 31 30 29 28 27 26 25 24 23 23 22 22 21 20 20 20 19 19 18
2 2 3 3 3 5 6 6 7 9 9 9 12 12 11 12 14 15 15 17 19 22 28 31 30 28 28 28 28 27 27 26 25 24 24 23 23 22 21 21 21 20 20
1 1 2 3 4 5 6 5 6 6 8 9 11 13 11 11 11 13 14 15 16 21 25 29 30 29 28 28 28 28 27 27 27 26 26 25 25 24 23 23 22 21 21
1 1 2 4 4 5 3 4 5 6 7 8 9 10 10 9 11 11 12 13 14 15 21 27 29 30 30 29 28 28 28 28 28 28 27 27 26 26 25 25 24 23 23
2 1 2 4 4 3 4 4 4 5 6 7 8 9 9 10 10 11 10 11 14 16 18 24 28 29 30 28 27 27 28 28 29 29 28 28 28 27 27 26 26 25 24
4 2 3 4 4 4 4 4 5 4 5 5 7 8 7 8 8 9 11 9 11 16 19 21 21 24 28 28 26 26 27 28 29 29 29 29 29 28 27 27 27 26 26
6 4 4 5 4 4 5 5 4 5 4 3 3 4 4 7 8 8 8 8 10 13 16 17 18 18 19 25 26 27 28 28 29 30 30 30 29 28 28 27 27 27 27
9 6 5 5 4 4 5 5 4 3 3 2 2 1 2 3 5 9 8 9 11 9 12 15 16 17 17 17 21 27 28 28 28 29 30 30 30 29 28 28 27 27 27
10 8 6 5 4 3 4 5 4 4 3 2 2 2 2 3 3 3 8 9 10 9 10 9 12 16 18 17 17 21 26 27 28 28 28 29 29 29 28 28 27 27 27
8 9 7 5 4 2 3 4 3 3 3 3 3 3 3 2 2 3 2 5 8 9 10 11 12 12 16 16 17 19 23 25 26 27 27 27 28 28 28 28 28 27 28
7 7 7 6 4 3 3 3 3 3 3 4 3 3 3 3 3 2 3 2 3 5 8 10 10 9 12 15 15 18 22 24 26 27 26 26 26 26 27 28 28 27 27
6 7 6 6 6 5 5 5 4 4 3 4 4 4 3 3 2 2 3 3 3 4 5 6 9 10 10 13 17 20 21 22 24 25 25 25 24 25 26 26 27 27 27
4 6 6 5 5 5 6 5 5 5 4 4 4 4 4 4 3 2 2 2 2 2 2 3 6 8 9 11 14 19 19 21 22 22 23 23 23 23 24 25 25 25 25
5 5 5 5 6 6 6 5 5 5 5 5 5 4 4 4 3 3 2 2 1 2 1 3 2 5 6 8 12 16 14 18 18 19 19 19 20 21 22 23 23 23 23
5 6 6 6 6 6 6 6 5 6 6 5 5 5 4 4 3 3 3 2 2 2 2 3 2 3 4 5 10 10 9 13 14 14 15 15 16 17 18 19 21 22 22
6 7 7 7 7 7 7 5 5 6 6 6 5 6 6 4 3 3 3 3 3 3 3 3 3 2 4 6 8 9 9 12 11 10 11 11 13 14 16 17 18 19 20
7 7 8 8 8 8 7 6 6 6 6 7 6 6 7 6 4 3 3 3 3 3 4 3 2 2 3 8 7 7 9 8 8 8 8 9 10 12 13 14 15 16 17
8 8 8 8 8 9 8 7 8 8 7 7 7 7 8 6 6 5 4 4 4 3 4 4 2 2 3 8 9 9 6 7 7 8 7 7 8 9 11 12 13 14 14
8 8 8 8 9 9 9 9 9 9 8 8 8 8 8 7 7 6 6 5 4 5 4 4 4 2 2 6 8 7 7 5 6 8 9 8 8 8 9 10 11 12 12
8 8 8 9 9 9 9 10 9 9 9 9 8 8 8 8 9 8 7 7 6 5 5 4 4 3 4 5 8 8 6 4 4 5 7 9 11 11 10 11 11 12 13
8 8 8 9 9 8 9 9 9 10 9 9 8 8 8 11 12 10 8 7 7 6 5 5 5 4 5 8 8 6 7 6 3 3 5 4 6 6 7 9 11 13 15
8 8 9 9 9 10 12 14 11 8 8 8 9 8 9 11 13 14 15 13 11 9 8 6 6 6 7 8 7 9 9 7 5 4 4 3 4 5 4 6 10 14 16
9 9 9 9 10 12 16 17 17 11 10 10 10 9 11 12 11 8 11 14 14 15 13 9 8 8 8 9 10 12 11 9 5 7 5 3 3 4 4 7 11 14 16
9 9 10 10 10 12 16 16 18 12 10 11 11 11 11 11 11 9 8 8 8 10 11 9 8 8 7 8 11 11 10 7 6 6 4 4 3 3 4 7 9 13 16
10 10 10 10 10 12 15 16 15 8 9 11 12 12 12 12 14 14 9 8 8 8 10 11 9 8 9 10 11 10 11 11 8 5 3 4 4 3 3 3 7 10 14
10 10 10 10 10 11 14 15 14 7 9 9 9 10 15 14 14 15 10 9 9 8 7 7 6 7 8 9 13 13 13 13 10 5 4 5 5 4 3 2 3 6 10
Wind_Direction
231 242 256 260 256 255 248 241 235 234 230 230 229 228 228 230 233 233 237 240 233 219 213 208 203 202 199 197 197 198 198 198 195 193 192 190 189 189 189 187 186 185 184
205 246 266 270 271 266 258 248 243 238 234 233 234 231 233 233 237 234 235 241 240 227 218 210 206 206 206 203 202 202 201 202 200 199 197 196 195 194 194 193 192 191 189
217 242 273 280 278 282 274 262 256 248 243 237 235 233 232 232 235 236 235 236 237 231 222 213 207 207 210 210 207 206 204 204 204 203 202 201 200 199 198 198 197 196 195
262 258 277 278 279 288 282 272 261 255 251 238 235 237 235 231 231 233 235 234 229 227 221 215 212 212 211 212 211 210 207 206 206 206 205 205 204 203 202 201 201 200 199
276 265 273 275 279 276 278 281 275 258 255 246 239 236 233 231 230 233 232 233 228 224 221 220 218 218 216 216 215 214 211 209 209 208 208 208 208 206 205 204 203 203 203
300 285 268 273 274 273 275 272 271 265 257 254 255 249 236 228 222 226 229 229 227 225 223 221 220 223 221 220 219 219 217 214 211 211 211 212 211 208 207 206 206 206 206
321 298 286 283 272 261 263 266 267 270 264 249 254 268 258 237 229 228 225 226 227 225 222 219 216 217 220 223 223 222 220 218 215 214 213 213 213 211 208 208 208 207 208
325 314 290 277 269 264 271 269 261 266 273 239 222 251 282 275 243 229 219 225 227 220 218 218 216 217 218 218 222 222 221 220 218 217 215 215 215 212 210 210 209 208 209
327 317 296 279 267 250 261 266 255 246 259 262 229 218 233 258 279 243 221 221 219 213 215 213 214 217 217 216 217 221 221 220 220 220 218 216 215 213 211 211 211 210 210
333 334 322 307 288 262 266 277 267 248 241 256 260 241 236 244 264 301 291 234 221 216 213 215 215 214 213 213 215 216 218 218 220 221 220 218 216 214 213 213 214 213 212
334 340 339 340 329 307 290 290 292 274 247 237 235 240 248 251 235 233 274 283 253 229 216 210 209 208 208 210 211 214 216 216 218 220 220 218 216 214 214 215 217 216 215
325 335 341 343 337 328 312 302 292 286 274 260 246 232 224 227 229 222 244 248 249 247 223 207 205 204 202 205 211 211 211 213 215 215 216 215 215 214 215 216 219 220 218
311 316 334 334 330 319 312 307 299 289 283 280 266 254 240 227 221 217 231 250 259 273 240 213 207 199 196 196 204 206 208 210 211 211 211 211 212 212 213 214 217 219 219
278 291 310 317 319 318 317 311 299 288 282 278 280 276 266 254 230 215 214 220 256 286 281 245 207 191 181 180 191 189 197 203 204 203 205 207 208 210 210 210 213 215 216
283 299 307 311 311 313 311 307 294 291 286 274 273 273 267 262 248 236 222 209 194 217 251 257 219 184 164 152 162 162 161 176 183 189 196 201 204 207 208 209 211 212 214
281 292 295 297 299 300 301 303 294 289 289 280 271 268 267 263 256 242 233 226 206 201 223 241 232 174 153 141 135 133 135 144 155 170 184 196 202 206 207 207 209 211 214
269 273 277 283 286 287 288 289 287 287 281 282 281 267 262 259 258 248 235 227 220 206 227 251 248 152 133 140 124 116 117 115 123 144 164 186 198 203 205 205 207 208 211
261 260 263 268 273 278 277 275 278 284 274 272 273 268 263 259 252 249 237 231 230 223 216 233 243 173 150 153 139 129 120 115 112 121 139 159 176 189 194 198 200 200 199
264 262 259 259 262 265 267 268 266 266 263 258 256 255 257 251 248 244 236 227 222 230 218 218 228 200 148 155 139 123 116 109 107 109 110 119 135 149 162 173 178 180 181
267 263 258 256 256 257 258 260 261 263 263 261 253 247 248 243 241 238 234 227 216 218 216 214 219 199 164 161 150 142 136 121 114 104 97 100 106 108 122 139 148 154 156
277 266 262 261 258 259 260 255 251 257 258 262 260 253 251 253 250 237 230 222 211 211 211 211 214 194 176 172 166 153 148 137 105 114 111 91 89 84 85 109 129 139 143
276 272 266 263 264 270 268 264 255 247 246 250 258 259 259 262 260 249 237 226 211 206 208 209 214 204 192 181 165 157 153 153 155 154 124 95 81 80 58 80 123 133 136
279 275 270 265 264 263 262 263 262 251 239 241 243 249 262 260 249 241 238 235 227 218 207 202 210 211 196 183 172 169 169 162 152 154 130 100 73 73 52 78 118 128 132
280 277 274 268 266 269 264 259 258 254 242 238 236 235 240 248 250 236 230 232 227 223 217 210 210 212 206 188 181 174 161 136 111 133 121 115 95 73 54 61 97 122 128
284 278 274 270 268 272 268 264 259 252 244 242 238 236 234 236 238 228 219 223 227 232 225 210 207 202 192 182 171 159 156 156 155 154 119 117 121 97 63 49 74 106 121
283 283 280 273 268 271 273 271 265 249 246 248 244 239 234 229 227 222 213 208 217 218 202 197 200 196 191 187 177 177 174 172 161 153 151 126 135 132 106 63 59 92 108
Height
1528 1528 1527 1527 1526 1526 1525 1525 1524 1525 1525 1526 1527 1529 1530 1532 1533 1535 1537 1539 1541 1543 1546 1548 1550 1553 1555 1557 1559 1561 1564 1566 1568 1570 1573 1575 1577 1579 1581 1583 1585 1587 1588
1525 1524 1523 1522 1522 1521 1519 1518 1518 1517 1517 1518 1519 1521 1523 1525 1527 1529 1531 1533 1535 1538 1540 1542 1545 1548 1551 1553 1555 1558 1560 1563 1565 1567 1570 1572 1574 1577 1579 1581 1583 1585 1587
1521 1520 1519 1518 1517 1515 1514 1512 1511 1510 1510 1510 1511 1513 1515 1517 1519 1522 1524 1526 1529 1531 1534 1537 1539 1542 1545 1548 1551 1553 1556 1559 1561 1564 1566 1569 1571 1574 1576 1578 1581 1583 1585
1518 1516 1515 1513 1512 1510 1508 1506 1504 1503 1502 1502 1502 1504 1506 1508 1511 1513 1516 1519 1522 1525 1527 1530 1533 1536 1540 1542 1545 1548 1551 1554 1557 1560 1563 1565 1568 1570 1573 1575 1578 1580 1583
1515 1513 1511 1509 1507 1505 1504 1501 1499 1498 1496 1495 1495 1496 1497 1499 1502 1505 1508 1511 1514 1518 1521 1524 1527 1530 1533 1536 1539 1542 1545 1548 1552 1555 1558 1561 1564 1567 1569 1572 1574 1577 1580
1511 1510 1508 1506 1504 1501 1499 1497 1495 1493 1491 1489 1489 1489 1489 1491 1494 1496 1499 1502 1506 1509 1513 1517 1520 1523 1526 1530 1533 1536 1539 1543 1546 1550 1553 1556 1560 1562 1565 1568 1571 1573 1576
1508 1506 1504 1502 1500 1498 1496 1494 1492 1489 1487 1486 1484 1483 1483 1485 1486 1488 1491 1494 1498 1501 1505 1509 1512 1515 1519 1522 1525 1529 1533 1536 1541 1544 1548 1551 1555 1558 1561 1564 1567 1570 1572
1504 1502 1500 1498 1497 1495 1493 1491 1489 1486 1485 1483 1482 1481 1481 1481 1481 1482 1484 1488 1491 1494 1497 1501 1504 1507 1511 1514 1518 1522 1526 1530 1534 1538 1542 1546 1549 1553 1556 1560 1563 1565 1568
1500 1498 1496 1495 1493 1492 1490 1488 1486 1484 1483 1482 1481 1481 1480 1478 1477 1478 1480 1482 1485 1488 1490 1493 1496 1499 1503 1507 1511 1515 1519 1523 1527 1532 1536 1540 1544 1547 1551 1555 1558 1561 1564
1496 1495 1493 1491 1490 1488 1487 1485 1484 1482 1481 1479 1479 1478 1479 1478 1478 1476 1476 1478 1481 1483 1485 1487 1490 1493 1496 1500 1504 1509 1513 1517 1521 1525 1530 1533 1538 1542 1545 1549 1553 1556 1559
1493 1491 1489 1488 1487 1486 1484 1483 1481 1480 1478 1477 1477 1476 1476 1476 1476 1475 1474 1475 1476 1478 1480 1482 1485 1488 1491 1494 1499 1503 1508 1512 1516 1520 1524 1527 1531 1535 1539 1543 1547 1550 1554
1489 1488 1486 1484 1483 1482 1481 1480 1479 1477 1476 1475 1474 1474 1474 1474 1474 1474 1473 1472 1473 1474 1476 1478 1480 1483 1486 1490 1494 1499 1503 1507 1511 1515 1518 1522 1525 1529 1533 1537 1541 1545 1548
1484 1483 1481 1480 1479 1478 1477 1476 1475 1474 1473 1472 1471 1471 1471 1471 1471 1471 1471 1470 1470 1471 1472 1474 1476 1479 1482 1486 1490 1495 1499 1503 1507 1511 1514 1517 1520 1524 1527 1531 1535 1539 1542
1481 1479 1477 1476 1475 1474 1473 1472 1471 1470 1469 1468 1468 1467 1467 1467 1468 1468 1469 1469 1469 1469 1469 1471 1473 1476 1479 1483 1487 1491 1495 1499 1502 1506 1510 1513 1516 1519 1522 1526 1530 1534 1537
1477 1475 1473 1471 1470 1468 1467 1466 1465 1465 1464 1464 1464 1463 1463 1463 1464 1464 1465 1466 1468 1467 1467 1469 1471 1473 1476 1480 1484 1487 1491 1495 1498 1502 1505 1508 1511 1514 1518 1521 1525 1529 1532
1474 1471 1469 1467 1465 1463 1462 1461 1460 1459 1459 1459 1459 1459 1459 1459 1459 1460 1461 1463 1464 1466 1466 1467 1469 1471 1473 1477 1480 1484 1487 1491 1494 1497 1501 1504 1507 1510 1513 1517 1521 1524 1528
1470 1467 1465 1463 1461 1459 1457 1456 1454 1454 1453 1453 1453 1454 1454 1455 1455 1456 1457 1458 1460 1462 1463 1464 1466 1468 1471 1474 1477 1480 1483 1486 1489 1493 1496 1499 1503 1506 1509 1513 1516 1520 1523
1465 1463 1461 1458 1456 1454 1452 1451 1449 1448 1447 1447 1447 1448 1449 1450 1450 1451 1452 1453 1455 1457 1460 1461 1463 1465 1467 1471 1474 1477 1480 1482 1485 1488 1491 1494 1498 1501 1505 1508 1512 1515 1519
1460 1457 1455 1453 1451 1449 1447 1445 1444 1442 1441 1441 1441 1442 1443 1444 1445 1447 1448 1449 1451 1453 1455 1457 1459 1462 1464 1467 1470 1473 1476 1478 1481 1484 1487 1490 1494 1497 1500 1504 1508 1511 1514
1454 1451 1449 1447 1444 1442 1440 1439 1438 1436 1435 1435 1435 1435 1436 1438 1439 1441 1442 1444 1446 1448 1450 1452 1455 1458 1460 1463 1466 1469 1472 1475 1478 1481 1484 1487 1490 1493 1497 1500 1504 1507 1510
1447 1445 1442 1440 1438 1436 1434 1432 1431 1430 1429 1428 1428 1428 1429 1431 1432 1435 1436 1439 1441 1442 1444 1446 1450 1453 1456 1458 1461 1465 1469 1472 1475 1478 1480 1484 1487 1490 1493 1497 1500 1503 1507
1441 1438 1435 1433 1431 1429 1427 1426 1424 1423 1422 1422 1421 1421 1422 1423 1425 1427 1430 1432 1435 1437 1439 1441 1444 1447 1450 1454 1457 1460 1465 1469 1472 1476 1478 1482 1484 1488 1491 1494 1497 1501 1504
1434 1431 1429 1426 1424 1422 1420 1418 1417 1415 1414 1413 1413 1413 1413 1414 1417 1419 1422 1425 1428 1430 1434 1436 1438 1441 1445 1448 1452 1455 1460 1465 1468 1472 1477 1479 1483 1486 1490 1492 1495 1498 1501
1428 1425 1422 1420 1417 1415 1413 1410 1408 1407 1405 1405 1404 1405 1405 1406 1409 1412 1414 1417 1420 1424 1427 1430 1433 1436 1440 1444 1447 1451 1455 1461 1467 1471 1475 1477 1481 1485 1488 1491 1494 1496 1499
1422 1419 1416 1413 1410 1407 1405 1403 1400 1398 1396 1395 1395 1395 1396 1397 1400 1404 1407 1409 1413 1417 1421 1424 1427 1430 1433 1437 1441 1446 1451 1457 1462 1467 1471 1474 1478 1482 1486 1489 1492 1495 1498
1416 1413 1410 1408 1404 1401 1398 1395 1393 1390 1388 1386 1386 1386 1387 1389 1392 1395 1399 1402 1406 1410 1415 1418 1421 1424 1427 1431 1435 1440 1445 1450 1455 1461 1466 1471 1475 1480 1484 1488 1490 1493 1496